This is the latest recevied weather packets stored in our database for station/object N0NPO. If no packets are shown the sender has not sent any weather packets the latest 10 day(s).
| Time | Temp. | Humidity | Pressure | Rain* | Wind** | Luminosity | Snow |
|---|---|---|---|---|---|---|---|
| 1777776262 | 15° C | 1% | 1014.6 hPa | 0 mm | - | 0 W/m² | - |
| 1777775960 | 15.56° C | 1% | 1014.3 hPa | 0 mm | - | 0 W/m² | - |
| 1777775657 | 15.56° C | 1% | 1014.1 hPa | 0 mm | - | 0 W/m² | - |
| 1777775354 | 15.56° C | 1% | 1014.1 hPa | 0 mm | - | 0 W/m² | - |
| 1777775048 | 16.11° C | 1% | 1014.2 hPa | 0 mm | - | 0 W/m² | - |
| 1777774744 | 16.11° C | 1% | 1014.2 hPa | 0 mm | - | 0 W/m² | - |
| 1777774441 | 16.67° C | 1% | 1013.9 hPa | 0 mm | - | 0 W/m² | - |
| 1777774138 | 16.67° C | 1% | 1013.8 hPa | 0 mm | - | 0 W/m² | - |
| 1777773836 | 17.22° C | 1% | 1013.8 hPa | 0 mm | - | 0 W/m² | - |
| 1777773532 | 17.78° C | 1% | 1013.6 hPa | 0 mm | - | 0 W/m² | - |
| 1777773229 | 17.78° C | 1% | 1013.6 hPa | 0 mm | - | 0 W/m² | - |
| 1777772924 | 18.33° C | 1% | 1013.5 hPa | 0 mm | - | 0 W/m² | - |
| 1777772623 | 18.33° C | 1% | 1013.6 hPa | 0 mm | - | 0 W/m² | - |
| 1777772320 | 18.89° C | 1% | 1013.5 hPa | 0 mm | - | 2 W/m² | - |
| 1777772017 | 18.89° C | 1% | 1013.4 hPa | 0 mm | - | 6 W/m² | - |
| 1777771714 | 19.44° C | 1% | 1013.4 hPa | 0 mm | - | 11 W/m² | - |
| 1777771412 | 19.44° C | 1% | 1013.2 hPa | 0 mm | - | 16 W/m² | - |
| 1777771108 | 20° C | 1% | 1013 hPa | 0 mm | - | 23 W/m² | - |
| 1777770805 | 20° C | 1% | 1013 hPa | 0 mm | - | 28 W/m² | - |
| 1777770502 | 20° C | 1% | 1012.9 hPa | 0 mm | - | 37 W/m² | - |
| 1777770199 | 20.56° C | 1% | 1013.2 hPa | 0 mm | - | 42 W/m² | - |
| 1777769896 | 20.56° C | 1% | 1013 hPa | 0 mm | - | 42 W/m² | - |
| 1777769593 | 20.56° C | 1% | 1012.7 hPa | 0 mm | - | 64 W/m² | - |
| 1777769290 | 20.56° C | 1% | 1012.6 hPa | 0 mm | - | 62 W/m² | - |
| 1777768987 | 21.67° C | 1% | 1012.5 hPa | 0 mm | - | 83 W/m² | - |
* Rain latest hour (hover to see other rain measurements)
** Current wind speed in m/s (hover to see current wind gust speed)